Regional Weather Roundup
Issued by NWS Charleston, SC

Current Version | Previous Version | Graphics & Text | Print | Product List | Glossary On
Versions: 1 2 3 4 5 6 7 8 9 10 11 12 13 14 15 16 17 18 19 20 21 22 23 24 25 26 27 28 29 30 31 32 33 34 35 36 37 38 39 40 41 42 43 44 45 46 47 48 49 50
000
ASUS42 KCHS 301728
RWRCHS

REGIONAL WEATHER ROUNDUP
NATIONAL WEATHER SERVICE CHARLESTON SC
100 PM EDT SAT JUL 30 2016

NOTE: "FAIR" INDICATES FEW OR NO CLOUDS BELOW 12,000 FEET WITH NO
SIGNIFICANT WEATHER AND/OR OBSTRUCTIONS TO VISIBILITY.

NOT ALL STATIONS ARE QUALITY CONTROLLED. USE DATA WITH CAUTION...
ESPECIALLY DEWPOINT OBSERVATIONS.

SCZ027-030-031-034>040-042>050-301800-
...SOUTHEAST SOUTH CAROLINA...

CITY           SKY/WX    TMP DP  RH WIND       PRES   REMARKS
N CHARLESTON   MOSUNNY   95  70  44 CALM      30.02S HX 101
WATERFRONT PRK   N/A     93  73  52 VRB3      30.01S HX 102
MOUNT PLEASANT FAIR      97  72  44 S7        30.01F HX 105
JOHNS ISLAND   FAIR      95  77  55 S10G16    30.01F HX 109
PINOPOLIS        N/A     91  73  55 VRB2      29.93S HX 100
MONCKS CORNER  FAIR      95  64  36 S6        30.00F HX  97
SUMMERVILLE    FAIR      97  70  41 SW6       30.02F HX 103
BEAUFORT MCAS  MOSUNNY   99  68  36 SW13      30.02F HX 104
BEAUFORT ARPT  FAIR      97  70  41 W7        30.01F HAZE    HX 103
HILTON HEAD IS MOSUNNY   97  77  52 SE6       30.04F HX 112
WALTERBORO     MOSUNNY   97  68  38 SW6       30.02F HX 101
ALLENDALE      FAIR      95  70  43 S8        30.01F HX 101

...SOUTHERN MIDLANDS AND PEE DEE...

CITY           SKY/WX    TMP DP  RH WIND       PRES   REMARKS
GEORGETOWN     FAIR      95  70  43 CALM      30.01F HX 101
KINGSTREE      FAIR      95  68  41 SW8       29.99F HX  99
ORANGEBURG     MOSUNNY   95  69  42 VRB5      30.02F HX 100
BARNWELL       NOT AVBL
AIKEN          FAIR      91  70  49 SW9       30.05F HX  97
MANNING        PTSUNNY   93  70  46 SW12      30.00F HX  99
COLUMBIA       PTSUNNY   98  68  37 S15G21    29.99F HX 103
SUMTER         MOSUNNY   93  73  52 SW8       29.99F HAZE    HX 102
FLORENCE       SUNNY     94  71  47 SW13      29.99F HX 101
MYRTLE BEACH   MOSUNNY   99  70  39 W9        30.02  HX 105
N MYRTLE BEACH SUNNY     94  77  57 S9        29.99F HX 108

$$

GAZ063-065-086>088-099>101-113>116-118-119-134>141-150-301800-
...SOUTHEAST GEORGIA...

CITY           SKY/WX    TMP DP  RH WIND       PRES   REMARKS
SAVANNAH ARPT  MOSUNNY   97  69  40 W9G20     30.03F HX 103
HUNTER AAF     SUNNY     96  75  49 SW12G17   30.01F HX 107
FORT STEWART   SUNNY     95  71  45 W10       30.01F HX 101
STATESBORO     SUNNY     94  73  49 W5        30.03F HX 103
SYLVANIA       NOT AVBL
CLAXTON        FAIR      95  73  48 W3        30.02F HX 104

...CSRA...CENTRAL AND FAR SOUTHEAST GEORGIA...

CITY           SKY/WX    TMP DP  RH WIND       PRES   REMARKS
THOMSON        NOT AVBL
AUGUSTA-BUSH   SUNNY     95  69  42 W13       30.01F HX 100
AUGUSTA-DANIEL PTSUNNY   93  69  45 SW6       30.03F HX  98
SWAINSBORO     FAIR      93  68  43 NW6       30.03F HX  97
VIDALIA        PTSUNNY   95  66  38 W7        30.03F HX  98
EASTMAN        PTSUNNY   94  55  26 W3        30.06F HX  92
HAZLEHURST     FAIR      96  70  42 CALM      30.03F HX 102
ALMA           MOSUNNY   95  70  44 VRB7      30.04F HX 101
WAYCROSS       MOSUNNY   98  73  45 W7        30.04F HX 108
JESUP          FAIR      97  73  46 SW5       30.04F HX 107
BAXLEY         PTSUNNY   95  73  49 SW3       30.04F HX 105
BRUNSWICK      MOSUNNY   99  73  44 S7        30.04F HX 109
SAINT SIMONS   SUNNY     92  75  57 SE10      30.05F HX 103

$$

SCZ027-028-034-036>038-045-046-048>050-GAZ119-141-301800-
...LAKE AND SUPPLEMENTAL COASTAL OBSERVATIONS...

STATION/POSITION TIME  TEMP    WIND        PRES    WAVE   SWELL
                       AIR SEA DIR/SP/G            HT/PER HT/PER/DIR
                 (UTC) (F)     (DEG/KT/KT) (MB)    (FT/S) (FT/S/D)
WINYAH BAY       1600   94     260/  5     1016.0
LAKE MURRAY      1600   91     170/  5/  7 1015.6F
ACE BASIN NERRS  1600   93     230/  1     1017.0S
FORT PULASKI     1700   94 88  250/  6/  9 1017.2F
SAPELO ISLAND    1700   96     180/  3     1017.0F

$$

ANZ835-935-AMZ111-154-330-350-352-354-370-450-454-472-301800-
...C-MAN AND BUOY OBSERVATIONS...

STATION/POSITION TIME  TEMP    WIND        PRES    WAVE   SWELL
                       AIR SEA DIR/SP/G            HT/PER HT/PER/DIR
                 (UTC) (F)     (DEG/KT/KT) (MB)    (FT/S) (FT/S/D)
BUOY 41004       1650   85 86  250/ 10/ 10 1016.6S   3/ 6   3/220/ 6
BUOY 41008       1650   85 87  180/  8/  8 1017.6F   1/ 8   2/100/ 8
FOLLY BEACH CMAN 1700   90     200/  9/ 11 1017.0S
CAPERS NEARSHORE 1608   87 86  210/  8/ 10 1016.7S
FRIPP NEARSHORE  1708   87 88  190/ 10/ 14 1016.6F


STATION/POSITION TIME  TEMP    WIND        PRES    WAVE   SWELL
                       AIR SEA DIR/SP/G            HT/PER HT/PER/DIR
                 (UTC) (F)     (DEG/KT/KT) (MB)    (FT/S) (FT/S/D)
5E ST. MARYS GA  1701      88                N/A     1/ 8
FRYING PAN BUOY  1700   85 85  220/ 10/ 12 1016.0F
BUOY 41025       1650   83 85  220/ 10/ 10 1016.0F   2/ 7   2/210/ 7
CAPE LOOKOUT NC  1700   86     210/  8/ 12 1015.7R
BUOY 41002       1650   85 85  220/ 10/ 12 1018.5S   3/ 6   2/240/ 6
BUOY 41010       1620   85 87  280/  6/  6 1018.8S
ST AUGUSTINE FL  1700   84 87   50/  9/ 11 1019.2F


$$



USA.gov is the U.S. government's official web portal to all federal, state and local government web resources and services.